Regional Weather Roundup
Issued by NWS Jackson, KY

Home | Current Version | Previous Version | Text Only | Print | Product List | Glossary Off
Versions: 1 2 3 4 5 6 7 8 9 10 11 12 13 14 15 16 17 18 19 20 21 22 23 24 25 26 27 28

000
ASUS43 KJKL 301110
RWRJKL

EAST KENTUCKY HOURLY WEATHER ROUNDUP
NATIONAL WEATHER SERVICE JACKSON KY
700 AM EDT MON MAY 30 2016

NOTE: "FAIR" INDICATES FEW OR NO CLOUDS BELOW 12,000 FEET WITH
NO SIGNIFICANT WEATHER AND/OR OBSTRUCTIONS TO VISIBILITY.

* THESE REPORTS ARE NOT UNDER NWS QUALITY CONTROL AND MAY NOT
  REPORT WEATHER SUCH AS PRECIPITATION AND FOG.

KYZ079-080-083-085-087-088-110-112-115-119-120-301200
...EASTERN KENTUCKY...

CITY           SKY/WX    TMP DP  RH WIND       PRES   REMARKS
JACKSON        MOCLDY    65  62  90 VRB3      30.05R
LONDON         MOCLDY    66  62  87 CALM      30.05F
SOMERSET*      PTCLDY    63  63 100 CALM      30.07S FOG
MONTICELLO*    MOCLDY    64  64 100 CALM      30.07S FOG
WILLIAMSBURG*    N/A     61  61 100 CALM      30.06S VSB 1/2
MIDDLESBORO*   CLOUDY    61  61 100 CALM      30.08S FOG
HARLAN APT*    CLOUDY    63  61  94 CALM      30.08F VSB 1/4
HAZARD APT*    PTSUNNY   64  64 100 CALM      30.06S
BLACK MTN*       N/A     59  59 100 NE3         N/A
PIKE CO APT*   FOG       64  64 100 S3        30.06S VSB<1/4
MOREHEAD APT*  CLOUDY    64  63  94 CALM      30.06S FOG
ASHLAND*       CLOUDY    64  63  94 W3        30.02R
$$

KYZ035-036-041-042-044-050-067-078-099-301200
...CENTRAL KENTUCKY...

CITY           SKY/WX    TMP DP  RH WIND       PRES   REMARKS
MT STERLING*   MOCLDY    64  64 100 CALM      30.06R
FLEMING/MASON* CLOUDY    63  63  99 SW3       30.05S FOG
DANVILLE*      PTCLDY    63  61  94 CALM      30.06S
RICHMOND*      PTCLDY    64  63  94 CALM      30.04F
LEXINGTON      PTCLDY    65  62  90 CALM      30.05S FOG
FRANKFORT      CLEAR     62  59  90 CALM      30.03S FOG
LOUISVILLE     PTCLDY    69  61  75 CALM      30.04R
LEBANON*         N/A     63  61  94 CALM      30.06R FOG
GLASGOW*       CLEAR     62  62 100 CALM      30.05R FOG
BOWLING GREEN  PTCLDY    65  63  93 CALM      30.05R
$$

KYZ091>093-OHZ055-061-077-WVZ005-015-034-035-042-301200
...SOUTHERN OHIO/WEST VIRGINIA...

CITY           SKY/WX    TMP DP  RH WIND       PRES   REMARKS
COVINGTON      MOCLDY    63  63 100 CALM      30.05R
COLUMBUS       CLOUDY    63  62  97 CALM      30.02R
DAYTON         CLOUDY    62  60  93 W5        30.06R
WILMINGTON     MOCLDY    64  62  93 W7        30.04S
HUNTINGTON       N/A     65  61  87 CALM      30.03R
CHARLESTON       N/A     62  61  96 SE3       30.03S FOG
PINEVILLE*     FOG       58  55  91 MISG      30.13S VSB 1
BECKLEY          N/A     59  56  89 CALM      30.10S
BLUEFIELD      FOG       56  55  97 CALM      30.12S VSB<1/4
LOGAN CO APT*    N/A     63  61  94 CALM      30.05S
$$

VAZ002-007-008-TNZ017-027-036-066-071-301200
...SOUTHWEST VIRGINIA/EAST TENNESSEE...

CITY           SKY/WX    TMP DP  RH WIND       PRES   REMARKS
WISE*          FOG       59  59 100 CALM      30.13R VSB<1/4
JONESVILLE*    FOG       63  63 100 CALM      30.10R VSB<1/4
ABINGDON*        N/A     62  60  93 E3        30.09S
BRISTOL        MOCLDY    58  57  97 CALM      30.07S
SEVIERVILLE*   SUNNY     59  59 100 CALM      30.05R
KNOXVILLE      FOG       64  63  96 NE3       30.04R VSB 1/16
OAK RIDGE      FOG       64  62  93 CALM      30.06S VSB 3/4
CROSSVILLE     CLEAR     63  59  87 CALM      30.09S
NASHVILLE      MOCLDY    67  64  90 CALM      30.05R
$$

...KEY TO REMARKS...
VSB - VISIBILITY IN MILES
WCI - WIND CHILL INDEX
HX  - HEAT INDEX

$$




USA.gov is the U.S. government's official web portal to all federal, state and local government web resources and services.